User: anonymous
Location: Fort Wayne
(41.1310°N, 85.1290°W)
Time: 20:26:50
(UTC-04:00)
Language:

Vanguard 3 - Orbit

View from above orbital plane
View from above orbital plane
View from above satellite
View from above satellite

Ground track
Ground track

The orbit data is extracted from the following two-line orbital elements,

1 00020U 59007A   14204.49269949  .00000134  00000-0  55041-4 0  5360
2 00020 033.3433 297.1263 1674708 358.3150 001.2270 11.53999085981247
Epoch (UTC): 23 July 2014 11:49:29
Eccentricity: 0.1674708
inclination: 33.3433°
perigee height: 508 km
apogee height: 3279 km
right ascension of ascending node: 297.1263°
argument of perigee: 358.3150°
revolutions per day: 11.53999085
mean anomaly at epoch: 1.2270°
orbit number at epoch: 98124

The dashed part of the orbit path shows where the satellite is in the earth's shadow,  

DLR